Date String (YYYY-MM-DD hh:mm:ss) UTC,Instrument flags,Ambient pressure (hPa),Sample flow (lpm),Bypass flow (lpm),Sample temperature (°C),Ambient temperature (°C),ASC tube jacket temperature (°C),LED temperature (°C),Box temperature (°C),Sample RH (%),Span deviation,Mass concentration (μg/m³),Mass concentration (μg/m³),Mass concentration (μg/m³)
DateTimeUTC,F1_M11,P_M11,Q1_M11,Q2_M11,T1_M11,T2_M11,T3_M11,T4_M11,T5_M11,U1_M11,ZSPAN_M11,X0_M11,X2_M11,X1_M11
2021-11-27 17:00:00,,0831.4,5.01,0.00,24.3,23.6,00.0,33.3,26.0,10.0,0000.0,0007.39,0002.00,0001.25
2021-11-27 17:01:00,,0831.4,5.01,0.00,24.3,23.6,00.0,33.3,26.0,10.0,0000.0,0007.47,0002.02,0001.25
2021-11-27 17:02:00,,0831.5,4.99,0.00,24.3,23.6,00.0,33.3,26.0,10.0,0000.0,0007.59,0002.06,0001.24
2021-11-27 17:03:00,,0831.5,5.00,0.00,24.3,23.6,00.0,33.3,26.0,09.9,0000.0,0007.33,0002.06,0001.24
2021-11-27 17:04:00,,0831.5,4.99,0.00,24.3,23.6,00.0,33.3,26.0,09.9,0000.0,0007.42,0002.13,0001.25
2021-11-27 17:05:00,,0831.5,5.01,0.00,24.3,23.5,00.0,33.3,26.0,10.0,0000.0,0007.43,0002.15,0001.28
2021-11-27 17:06:00,,0831.5,4.99,0.00,24.2,23.5,00.0,33.3,26.0,10.1,0000.0,0007.41,0002.22,0001.29
2021-11-27 17:07:00,,0831.5,5.01,0.00,24.2,23.6,00.0,33.3,26.0,10.0,0000.0,0006.31,0002.17,0001.30
2021-11-27 17:08:00,,0831.5,5.00,0.00,24.2,23.6,00.0,33.3,26.0,10.0,0000.0,0005.92,0002.18,0001.32
2021-11-27 17:09:00,,0831.5,4.99,0.00,24.2,23.5,00.0,33.3,26.0,10.0,0000.0,0005.79,0002.18,0001.34
2021-11-27 17:10:00,,0831.5,5.00,0.00,24.2,23.6,00.0,33.3,26.0,10.0,0000.0,0005.68,0002.16,0001.36
2021-11-27 17:11:00,,0831.5,5.00,0.00,24.2,23.6,00.0,33.3,26.0,09.9,0000.0,0004.50,0002.11,0001.39
2021-11-27 17:12:00,,0831.6,5.01,0.00,24.3,23.6,00.0,33.3,26.0,09.9,0000.0,0004.30,0002.15,0001.41
2021-11-27 17:13:00,,0831.5,5.00,0.00,24.3,23.6,00.0,33.3,26.0,09.9,0000.0,0004.30,0002.18,0001.44
2021-11-27 17:14:00,,0831.6,4.99,0.00,24.2,23.6,00.0,33.3,26.0,09.9,0000.0,0005.20,0002.24,0001.47
2021-11-27 17:15:00,,0831.6,5.01,0.00,24.2,23.6,00.0,33.3,26.0,09.8,0000.0,0005.56,0002.28,0001.49
2021-11-27 17:16:00,,0831.5,4.99,0.00,24.2,23.6,00.0,33.3,26.0,09.8,0000.0,0005.66,0002.30,0001.49
2021-11-27 17:17:00,,0831.5,5.01,0.00,24.2,23.6,00.0,33.3,26.0,09.9,0000.0,0005.83,0002.33,0001.50
2021-11-27 17:18:00,,0831.5,4.99,0.00,24.2,23.6,00.0,33.3,26.0,09.9,0000.0,0006.47,0002.40,0001.52
2021-11-27 17:19:00,,0831.6,5.00,0.00,24.2,23.6,00.0,33.3,26.0,09.9,0000.0,0007.37,0002.40,0001.53
2021-11-27 17:20:00,,0831.6,5.01,0.00,24.2,23.6,00.0,33.3,25.9,09.9,0000.0,0007.41,0002.43,0001.53
2021-11-27 17:21:00,,0831.6,4.99,0.00,24.2,23.6,00.0,33.3,26.0,09.9,0000.0,0007.46,0002.46,0001.52
2021-11-27 17:22:00,,0831.6,5.01,0.00,24.2,23.6,00.0,33.3,26.0,09.9,0000.0,0007.46,0002.45,0001.51
2021-11-27 17:23:00,,0831.6,4.99,0.00,24.2,23.6,00.0,33.3,26.0,09.9,0000.0,0007.32,0002.42,0001.51
2021-11-27 17:24:00,,0831.6,5.00,0.00,24.2,23.6,00.0,33.3,26.0,09.9,0000.0,0007.22,0002.42,0001.49
2021-11-27 17:25:00,,0831.7,5.01,0.00,24.3,23.7,00.0,33.3,26.0,09.8,0000.0,0006.43,0002.39,0001.49
2021-11-27 17:26:00,,0831.7,5.00,0.00,24.2,23.6,00.0,33.3,26.0,09.8,0000.0,0005.97,0002.29,0001.47
2021-11-27 17:27:00,,0831.7,5.01,0.00,24.2,23.6,00.0,33.3,26.0,09.8,0000.0,0006.68,0002.21,0001.46
2021-11-27 17:28:00,,0831.7,5.00,0.00,24.2,23.6,00.0,33.3,26.0,09.8,0000.0,0006.60,0002.12,0001.45
2021-11-27 17:29:00,,0831.7,4.99,0.00,24.2,23.6,00.0,33.3,25.9,09.9,0000.0,0006.18,0002.07,0001.45
2021-11-27 17:30:00,,0831.6,5.02,0.00,24.2,23.6,00.0,33.3,25.9,09.9,0000.0,0005.16,0002.11,0001.45
2021-11-27 17:31:00,,0831.6,5.00,0.00,24.2,23.6,00.0,33.3,26.0,09.9,0000.0,0006.97,0002.17,0001.44
2021-11-27 17:32:00,,0831.7,4.98,0.00,24.2,23.7,00.0,33.3,26.0,09.9,0000.0,0007.10,0002.18,0001.45
2021-11-27 17:33:00,,0831.6,5.00,0.00,24.2,23.7,00.0,33.3,26.0,09.8,0000.0,0007.88,0002.18,0001.46
2021-11-27 17:34:00,,0831.6,5.01,0.00,24.2,23.6,00.0,33.3,26.0,09.9,0000.0,0008.08,0002.16,0001.47
2021-11-27 17:35:00,,0831.6,4.98,0.00,24.2,23.6,00.0,33.3,26.0,09.8,0000.0,0008.18,0002.18,0001.48
2021-11-27 17:36:00,,0831.6,5.02,0.00,24.2,23.6,00.0,33.3,25.9,09.8,0000.0,0008.75,0002.15,0001.48
2021-11-27 17:37:00,,0831.7,4.99,0.00,24.2,23.6,00.0,33.3,25.9,09.8,0000.0,0008.91,0002.19,0001.48
2021-11-27 17:38:00,,0831.7,4.99,0.00,24.2,23.6,00.0,33.3,25.9,09.6,0000.0,0008.99,0002.23,0001.47
2021-11-27 17:39:00,,0831.8,5.01,0.00,24.2,23.6,00.0,33.3,26.0,09.7,0000.0,0008.75,0002.25,0001.45
2021-11-27 17:40:00,,0831.7,5.00,0.00,24.2,23.6,00.0,33.3,26.0,09.7,0000.0,0008.89,0002.24,0001.44
2021-11-27 17:41:00,,0831.7,5.01,0.00,24.2,23.7,00.0,33.3,26.0,09.6,0000.0,0008.80,0002.19,0001.42
2021-11-27 17:42:00,,0831.7,4.99,0.00,24.3,23.7,00.0,33.3,26.0,09.6,0000.0,0007.76,0002.14,0001.41
2021-11-27 17:43:00,,0831.7,5.01,0.00,24.3,23.8,00.0,33.3,26.1,09.6,0000.0,0007.67,0002.10,0001.38
2021-11-27 17:44:00,,0831.8,5.00,0.00,24.3,23.7,00.0,33.3,26.2,09.6,0000.0,0007.07,0002.10,0001.36
2021-11-27 17:45:00,,0831.7,4.99,0.00,24.3,23.8,00.0,33.3,26.2,09.6,0000.0,0007.42,0002.11,0001.34
2021-11-27 17:46:00,,0831.8,5.00,0.00,24.3,23.8,00.0,33.3,26.2,09.6,0000.0,0007.27,0002.09,0001.33
2021-11-27 17:47:00,,0831.7,5.00,0.00,24.4,23.8,00.0,33.3,26.2,09.7,0000.0,0006.26,0002.10,0001.31
2021-11-27 17:48:00,,0831.7,5.00,0.00,24.4,23.9,00.0,33.3,26.2,09.5,0000.0,0005.77,0002.06,0001.31
2021-11-27 17:49:00,,0831.6,5.00,0.00,24.4,23.9,00.0,33.3,26.2,09.5,0000.0,0004.93,0002.04,0001.31
2021-11-27 17:50:00,,0831.6,5.00,0.00,24.4,23.9,00.0,33.3,26.2,09.5,0000.0,0005.98,0002.00,0001.31
2021-11-27 17:51:00,,0831.6,5.01,0.00,24.4,24.0,00.0,33.4,26.2,09.6,0000.0,0006.32,0002.00,0001.31
2021-11-27 17:52:00,,0831.6,5.00,0.00,24.4,24.0,00.0,33.4,26.2,09.5,0000.0,0006.37,0002.00,0001.31
2021-11-27 17:53:00,,0831.5,5.01,0.00,24.4,23.9,00.0,33.4,26.2,09.5,0000.0,0006.33,0002.00,0001.32
2021-11-27 17:54:00,,0831.5,4.99,0.00,24.4,23.9,00.0,33.4,26.2,09.6,0000.0,0006.58,0002.08,0001.34
2021-11-27 17:55:00,,0831.5,5.01,0.00,24.4,23.9,00.0,33.4,26.3,09.7,0000.0,0006.67,0002.08,0001.34
2021-11-27 17:56:00,,0831.6,4.99,0.00,24.5,24.0,00.0,33.4,26.3,09.8,0000.0,0007.45,0002.07,0001.34
2021-11-27 17:57:00,,0831.6,5.01,0.00,24.5,24.0,00.0,33.4,26.3,10.0,0000.0,0007.75,0002.02,0001.34
2021-11-27 17:58:00,,0831.7,4.99,0.00,24.5,24.0,00.0,33.4,26.3,10.0,0000.0,0007.93,0001.99,0001.35
2021-11-27 17:59:00,,0831.6,4.99,0.00,24.5,24.0,00.0,33.4,26.4,10.0,0000.0,0007.91,0001.96,0001.35
